Regional Weather Roundup
Issued by NWS Sioux Falls, SD

Home | Current Version | Previous Version | Text Only | Print | Product List | Glossary Off
Versions: 1 2 3 4 5 6 7 8 9 10 11 12 13 14 15 16 17 18 19 20 21 22 23 24 25 26 27 28 29 30 31 32 33 34 35 36 37 38 39 40 41 42 43 44 45 46 47 48 49 50

000
ASUS43 KFSD 281110
RWRFSD

WEATHER ROUNDUP FOR SE SOUTH DAKOTA/SW MINNESOTA/NW IOWA
NATIONAL WEATHER SERVICE SIOUX FALLS SD
600 AM CDT THU MAY 28 2015

NOTE: "FAIR" INDICATES FEW OR NO CLOUDS BELOW 12,000 FEET WITH NO
SIGNIFICANT WEATHER AND OR OBSTRUCTIONS TO VISIBILITY.


SDZ038>040-050-052>070-281200-
SOUTHEAST SOUTH DAKOTA

CITY           SKY/WX    TMP DP  RH WIND       PRES   REMARKS
BROOKINGS      MOCLDY    64  50  59 S9        30.03R
CHAMBERLAIN    MOCLDY    61  57  87 S8        29.95S
HURON            N/A    N/A N/A N/A MISG      29.95S
MADISON        CLOUDY    64  52  63 S8        30.02S
MITCHELL       MOCLDY    64  54  69 S9        29.98S
SIOUX FALLS    CLOUDY    66  51  58 S10       30.02S
WINNER         FAIR      64  56  75 S16       29.95R
YANKTON        CLOUDY    63  52  67 E3        30.01R
$$

MNZ071-072-080-081-089-090-097-098-281200-
SOUTHWEST MINNESOTA

CITY           SKY/WX    TMP DP  RH WIND       PRES   REMARKS
FAIRMONT       CLEAR     57  48  72 S8        30.07R
JACKSON        CLEAR     57  52  82 S7        30.07S
LUVERNE        MOCLDY    57  52  82 CALM      30.05R
MARSHALL       MOCLDY    64  48  55 SW14      30.01R
MONTEVIDEO     PTCLDY    63  52  67 SW6       30.00S
REDWOOD FALLS  CLEAR     60  52  74 S9        30.02R
TRACY          PTCLDY    66  51  59 SW13      30.03R
WINDOM         CLEAR     63  50  63 CALM      30.06R
WORTHINGTON    CLEAR     61  48  63 S10       30.06S
$$

IAZ001>003-012>014-020>022-031-032-NEZ013-014-SDZ071-281200-
NORTHWEST IOWA

CITY           SKY/WX    TMP DP  RH WIND       PRES   REMARKS
CHEROKEE       CLEAR     52  52 100 CALM      30.06R
DENISON        MOCLDY    59  57  94 SE6       30.06R
ESTHERVILLE    CLEAR     54  52  93 S7        30.07R
LE MARS        PTCLDY    57  54  88 CALM      30.06R
ORANGE CITY    MOCLDY    61  50  67 S3        30.05S
SHELDON        PTCLDY    55  52  88 SE5       30.05R
SIOUX CITY     MOCLDY    57  51  80 SE9       30.04R
SPENCER        CLEAR     55  51  86 CALM      30.07R
STORM LAKE     CLEAR     59  52  77 S9        30.09R
$$

ABBREVIATIONS USED IN REMARKS
   TC - TEMPERATURE IN CELSIUS
  WCI - WIND CHILL INDEX
   HX - HEAT INDEX
  VSB - VISIBILITY




USA.gov is the U.S. government's official web portal to all federal, state and local government web resources and services.